To NAV CANADA Home Page Login to a new session Search on AWWS site Feedback and Comments Disclaimer Vers la page française équivalente Tips FAQ What's new on the site To the Forecasts and Observations / NOTAM section To "File a Flight Plan" website Publications and other links Update of the User's profile FIC Telephone Numbers My Weather Data Folder Route Weather Data Regional Weather Data Local Weather Data To the Forecasts and Observations / NOTAM section
Request Generated 05/25/2017 at 01:13:36 UTC . Weather information available at that time is displayed.

METAR/TAF

MOOSE JAW/AIR VICE MARSHAL C.M. MCEWEN/SK    

SPECI CYMJ 242239Z 30023KT 10SM BKN120 BKN250 23/02 A2920 RMK ACC5CI2 WSHFT 2235 LAST OBS/NEXT 251000 UTC SLP885=
METAR CYMJ 242200Z 24017G22KT 12SM BKN120 BKN250 23/M01 A2917 RMK ACC7CI1 SLP877=

TAF AMD CYMJ 242247Z 2419/2506 FCST CNCLD DUE END OF FLYING PROGRAM
RMK NXT FCST WILL BE ISSUED AT 251115Z=
Your time UTC time
Weather data provided by Environment Canada and NAV CANADA